DW1818 Weather Reports


time (UTC)temp
F
wind
direction
speed
knots
gust
knots
rain 1hr
in
rain 24hr
in
rain mn
in
humidity
%
barometer
mb
20260504044532 40 44 2.6 0.0 0.00 0.00 0.00 100 1013.7
20260504043025 40 57 2.6 0.0 0.00 0.00 0.00 100 1013.5
20260504041519 41 52 1.7 0.0 0.00 0.00 0.00 100 1013.6
20260504040016 42 320 1.7 0.0 0.00 0.00 0.00 100 1013.5
20260504034516 42 320 1.7 0.0 0.00 0.00 0.00 100 1013.6
20260504033015 43 239 0.0 0.0 0.00 0.00 0.00 100 1013.6
20260504031514 44 239 0.9 0.0 0.00 0.00 0.00 100 1013.4
20260504030015 45 239 0.9 0.0 0.00 0.00 0.00 100 1013.4
20260504024513 45 239 0.9 0.0 0.00 0.00 0.00 100 1013.3
20260504023013 45 240 1.7 0.0 0.00 0.00 0.00 100 1013.2
20260504021512 47 266 1.7 0.0 0.00 0.00 0.00 100 1013.4
20260504020012 48 224 0.9 0.0 0.00 0.00 0.00 100 1013.5
20260504014524 49 224 2.6 0.0 0.00 0.00 0.00 100 1013.4
20260504013013 51 265 4.3 0.0 0.00 0.00 0.00 100 1013.2
20260504011506 52 253 3.5 0.0 0.00 0.00 0.00 100 1013.0
20260504010002 52 265 3.5 0.0 0.00 0.00 0.00 100 1012.9
20260504004558 54 249 4.3 0.0 0.00 0.00 0.00 100 1012.8
20260504003053 56 240 5.2 0.0 0.00 0.00 0.00 100 1012.7
20260504001558 56 235 6.1 0.0 0.00 0.00 0.00 100 1012.6
20260504000048 57 254 7.0 0.0 0.00 0.00 0.00 100 1012.4
20260503234540 58 232 6.1 0.0 0.00 0.00 0.00 100 1012.2
20260503233036 59 231 6.1 0.0 0.00 0.00 0.00 100 1012.3
20260503231531 59 250 7.0 0.0 0.00 0.00 0.00 100 1012.2
20260503230027 59 225 8.7 0.0 0.00 0.00 0.00 100 1012.2
20260503224526 59 255 9.6 0.0 0.00 0.00 0.00 100 1012.1
20260503223018 59 243 11.3 0.0 0.00 0.00 0.00 100 1012.1
20260503221513 60 225 8.7 0.0 0.00 0.00 0.00 100 1012.3
20260503220009 60 244 12.2 0.0 0.00 0.00 0.00 100 1012.4
20260503214518 60 165 9.6 0.0 0.00 0.00 0.00 100 1012.2
20260503213100 59 254 12.2 0.0 0.00 0.00 0.00 100 1012.1
20260503211556 60 248 10.4 0.0 0.00 0.00 0.00 100 1012.0
20260503210056 60 269 12.2 0.0 0.00 0.00 0.00 100 1012.1
20260503204601 59 244 9.6 0.0 0.00 0.00 0.00 100 1012.1
20260503203042 58 259 12.2 0.0 0.00 0.00 0.00 100 1012.1
20260503201539 59 235 12.2 0.0 0.00 0.00 0.00 100 1012.2
20260503200043 58 240 13.9 0.0 0.00 0.00 0.00 100 1012.3
20260503194530 58 254 11.3 0.0 0.00 0.00 0.00 100 1012.6
20260503193026 58 298 9.6 0.0 0.00 0.00 0.00 100 1012.7
20260503191521 58 240 13.0 0.0 0.00 0.00 0.00 100 1013.1
20260503190017 57 263 12.2 0.0 0.00 0.00 0.00 100 1013.2
20260503184517 57 278 12.2 0.0 0.00 0.00 0.00 100 1013.5
20260503183008 58 267 10.4 0.0 0.00 0.00 0.00 100 1013.4
20260503181505 57 315 9.6 0.0 0.00 0.00 0.00 100 1013.4
20260503180108 56 223 9.6 0.0 0.00 0.00 0.00 100 1013.4
20260503174555 56 267 6.1 0.0 0.00 0.00 0.00 100 1013.5
20260503173142 55 211 10.4 0.0 0.00 0.00 0.00 100 1013.6
20260503171548 55 259 8.7 0.0 0.00 0.00 0.00 100 1013.9
20260503081514 40 286 7.8 0.0 0.00 0.00 0.00 100 1014.3
20260503071554 41 284 9.6 0.0 0.00 0.00 0.00 100 1013.4